Hourly Data Report for May 27, 2017

ATIKOKAN (AUT)
ONTARIO

48°45'40.000" N
91°37'41.000" W
389.30 m
6020LPQ
71747
WCH

Download Data

Hourly Data (May 2017)
Hourly Data Report for May 27, 2017
TIME
LST
Temp Definition
°C
Dew Point Definition
°C
Rel Hum Definition
%
Precip. Amount Definition
mm

Wind Dir Definition
10's deg

Wind Spd Definition
km/h
Visibility Definition
km
Stn Press Definition
kPa
Hmdx Definition


Wind Chill Definition


Weather Definition


00:00 9.0 8.2 95 0.0   0   96.16     LegendNANA
01:00 8.0 7.2 95 0.0   0   96.18     LegendNANA
02:00 7.3 6.7 96 0.0   0   96.20     LegendNANA
03:00 6.8 6.2 96 0.0   0   96.22     LegendNANA
04:00 6.2 5.6 97 0.0   0   96.24     LegendNANA
05:00 6.5 6.1 97 0.0   0   96.29     LegendNANA
06:00 9.3 8.7 96 0.0   0   96.30     LegendNANA
07:00 12.0 9.0 82 0.0 23 5   96.26     LegendNANA
08:00 13.9 8.5 70 0.0 26 6   96.29     LegendNANA
09:00 16.3 8.6 60 0.0 30 8   96.33     LegendNANA
10:00 17.6 7.9 53 0.0 23 7   96.29     LegendNANA
11:00 18.9 7.4 47 0.0 22 10   96.27     LegendNANA
12:00 20.6 4.3 34 0.0 25 13   96.26     LegendNANA
13:00 20.7 2.9 31 0.0 28 14   96.22     LegendNANA
14:00 21.2 2.9 30 0.0 25 11   96.20     LegendNANA
15:00 21.7 2.7 29 0.0 23 14   96.17     LegendNANA
16:00 21.2 2.6 29 0.0 22 11   96.14     LegendNANA
17:00 21.1 3.6 32 0.0 24 7   96.09     LegendNANA
18:00 20.5 3.3 32 0.0 27 6   96.08     LegendNANA
19:00 19.0 4.1 37 0.0 32 10   96.13     LegendNANA
20:00 14.9 7.5 61 0.0 31 2   96.14     LegendNANA
21:00 13.1 7.1 67 0.0   0   96.11     LegendNANA
22:00 10.9 7.9 82 0.0 4 2   96.07     LegendNANA
23:00 12.2 7.7 74 0.0 28 2   96.10     LegendNANA

Notes on Data Quality.

Legend

  • E = Estimated
  • M = Missing
  • NA = Not Available*
  • [empty] = Indicates an unobserved value
Date modified: